Time,TemperatureF,DewpointF,PressureIn,WindDirection,WindDirectionDegrees,WindSpeedMPH,WindSpeedGustMPH,Humidity,HourlyPrecipIn,Conditions,Clouds,dailyrainin,SoftwareType,DateUTC
2013-02-28 00:03:00,36.0,35.5,29.50,SE,135,0.0,-999.0,98,-99.99,,,0.00,Acu-Link.com,2013-02-28 05:03:00,
2013-02-28 00:18:00,35.8,35.3,29.50,SSW,202,0.0,-999.0,98,-99.99,,,0.00,Acu-Link.com,2013-02-28 05:18:00,
2013-02-28 00:33:00,35.6,35.1,29.49,SSE,157,2.2,-999.0,98,-99.99,,,0.00,Acu-Link.com,2013-02-28 05:33:00,
2013-02-28 00:48:00,35.8,35.3,29.49,SSE,157,1.7,-999.0,98,-99.99,,,0.00,Acu-Link.com,2013-02-28 05:48:00,
2013-02-28 01:04:00,37.2,36.7,29.50,East,90,0.0,-999.0,98,-99.99,,,0.00,Acu-Link.com,2013-02-28 06:04:00,
2013-02-28 01:19:00,36.9,36.4,29.50,WNW,292,1.1,-999.0,98,-99.99,,,0.00,Acu-Link.com,2013-02-28 06:19:00,
2013-02-28 01:34:00,36.1,35.6,29.49,NNE,22,0.0,-999.0,98,-99.99,,,0.00,Acu-Link.com,2013-02-28 06:34:00,
2013-02-28 01:49:00,35.6,35.1,29.49,SW,225,2.2,-999.0,98,-99.99,,,0.00,Acu-Link.com,2013-02-28 06:49:00,
2013-02-28 02:04:00,35.8,35.3,29.49,NE,45,4.2,-999.0,98,-99.99,,,0.00,Acu-Link.com,2013-02-28 07:04:00,
2013-02-28 02:20:00,35.4,34.9,29.48,SSW,202,2.7,-999.0,98,-99.99,,,0.00,Acu-Link.com,2013-02-28 07:20:00,
2013-02-28 02:35:00,35.6,35.1,29.48,SSE,157,3.7,-999.0,98,-99.99,,,0.00,Acu-Link.com,2013-02-28 07:35:00,
2013-02-28 02:50:00,35.6,35.1,29.47,ESE,112,3.7,-999.0,98,-99.99,,,0.00,Acu-Link.com,2013-02-28 07:50:00,
2013-02-28 03:05:00,34.9,34.4,29.47,NE,45,2.7,-999.0,98,-99.99,,,0.00,Acu-Link.com,2013-02-28 08:05:00,
2013-02-28 03:21:00,34.2,33.7,29.47,ESE,112,2.7,-999.0,98,-99.99,,,0.00,Acu-Link.com,2013-02-28 08:21:00,
2013-02-28 03:36:00,34.2,33.7,29.47,South,180,2.2,-999.0,98,-99.99,,,0.00,Acu-Link.com,2013-02-28 08:36:00,
2013-02-28 03:51:00,34.0,33.5,29.47,SE,135,2.2,-999.0,98,-99.99,,,0.00,Acu-Link.com,2013-02-28 08:51:00,
2013-02-28 04:18:00,33.8,33.3,29.47,ESE,112,3.2,-999.0,98,-99.99,,,0.00,Acu-Link.com,2013-02-28 09:18:00,
2013-02-28 04:34:00,34.2,33.7,29.47,NE,45,1.1,-999.0,98,-99.99,,,0.00,Acu-Link.com,2013-02-28 09:34:00,
2013-02-28 04:49:00,34.0,33.5,29.47,South,180,0.0,-999.0,98,-99.99,,,0.00,Acu-Link.com,2013-02-28 09:49:00,
2013-02-28 05:04:00,34.0,33.5,29.47,East,90,0.0,-999.0,98,-99.99,,,0.00,Acu-Link.com,2013-02-28 10:04:00,
2013-02-28 05:19:00,34.3,33.8,29.48,ESE,112,1.7,-999.0,98,-99.99,,,0.00,Acu-Link.com,2013-02-28 10:19:00,
2013-02-28 05:34:00,34.2,33.7,29.48,East,90,2.2,-999.0,98,-99.99,,,0.00,Acu-Link.com,2013-02-28 10:34:00,
2013-02-28 05:50:00,33.4,32.9,29.49,ENE,67,2.7,-999.0,98,-99.99,,,0.00,Acu-Link.com,2013-02-28 10:50:00,
2013-02-28 06:05:00,33.1,32.6,29.49,NNE,22,3.2,-999.0,98,-99.99,,,0.00,Acu-Link.com,2013-02-28 11:05:00,
2013-02-28 06:20:00,33.1,32.6,29.49,East,90,2.2,-999.0,98,-99.99,,,0.00,Acu-Link.com,2013-02-28 11:20:00,
2013-02-28 06:35:00,33.3,32.8,29.50,NE,45,1.1,-999.0,98,-99.99,,,0.00,Acu-Link.com,2013-02-28 11:35:00,
2013-02-28 06:50:00,33.1,32.6,29.50,ESE,112,2.2,-999.0,98,-99.99,,,0.00,Acu-Link.com,2013-02-28 11:50:00,
2013-02-28 07:06:00,32.5,32.0,29.50,WNW,292,1.7,-999.0,98,-99.99,,,0.00,Acu-Link.com,2013-02-28 12:06:00,
2013-02-28 07:21:00,32.7,32.2,29.50,ESE,112,2.2,-999.0,98,-99.99,,,0.00,Acu-Link.com,2013-02-28 12:21:00,
2013-02-28 07:36:00,32.9,32.4,29.51,East,90,1.7,-999.0,98,-99.99,,,0.00,Acu-Link.com,2013-02-28 12:36:00,
2013-02-28 07:51:00,33.4,31.9,29.50,SSW,202,3.2,-999.0,94,-99.99,,,0.00,Acu-Link.com,2013-02-28 12:51:00,
2013-02-28 08:06:00,33.8,31.7,29.52,ENE,67,3.2,-999.0,92,-99.99,,,0.00,Acu-Link.com,2013-02-28 13:06:00,
2013-02-28 08:22:00,34.3,32.0,29.51,South,180,2.2,-999.0,91,-99.99,,,0.00,Acu-Link.com,2013-02-28 13:22:00,
2013-02-28 08:37:00,34.9,32.0,29.53,ENE,67,2.7,-999.0,89,-99.99,,,0.00,Acu-Link.com,2013-02-28 13:37:00,
2013-02-28 08:52:00,35.1,32.7,29.53,SSE,157,1.7,-999.0,91,-99.99,,,0.00,Acu-Link.com,2013-02-28 13:52:00,
2013-02-28 09:07:00,35.2,32.8,29.52,East,90,2.2,-999.0,91,-99.99,,,0.00,Acu-Link.com,2013-02-28 14:07:00,
2013-02-28 09:22:00,36.0,33.9,29.53,ESE,112,2.2,-999.0,92,-99.99,,,0.00,Acu-Link.com,2013-02-28 14:22:00,
2013-02-28 09:38:00,36.7,34.3,29.53,ESE,112,2.2,-999.0,91,-99.99,,,0.00,Acu-Link.com,2013-02-28 14:38:00,
2013-02-28 09:53:00,37.0,34.9,29.54,SSW,202,3.2,-999.0,92,-99.99,,,0.00,Acu-Link.com,2013-02-28 14:53:00,
2013-02-28 10:08:00,36.7,35.4,29.54,ESE,112,1.7,-999.0,95,-99.99,,,0.00,Acu-Link.com,2013-02-28 15:08:00,
2013-02-28 10:23:00,37.8,35.7,29.53,SW,225,3.2,-999.0,92,-99.99,,,0.00,Acu-Link.com,2013-02-28 15:23:00,
2013-02-28 10:39:00,39.9,37.2,29.53,NE,45,3.2,-999.0,90,-99.99,,,0.00,Acu-Link.com,2013-02-28 15:39:00,
2013-02-28 10:54:00,40.3,37.3,29.53,SE,135,2.7,-999.0,89,-99.99,,,0.00,Acu-Link.com,2013-02-28 15:54:00,
2013-02-28 11:09:00,39.4,35.9,29.54,NE,45,3.2,-999.0,87,-99.99,,,0.00,Acu-Link.com,2013-02-28 16:09:00,
2013-02-28 11:24:00,39.2,36.5,29.54,ENE,67,3.2,-999.0,90,-99.99,,,0.00,Acu-Link.com,2013-02-28 16:24:00,
2013-02-28 11:39:00,40.6,35.2,29.55,ESE,112,2.7,-999.0,81,-99.99,,,0.00,Acu-Link.com,2013-02-28 16:39:00,
2013-02-28 11:55:00,41.4,37.2,29.55,ESE,112,2.7,-999.0,85,-99.99,,,0.00,Acu-Link.com,2013-02-28 16:55:00,
2013-02-28 12:10:00,41.0,35.6,29.54,WNW,292,2.7,-999.0,81,-99.99,,,0.00,Acu-Link.com,2013-02-28 17:10:00,
2013-02-28 12:25:00,41.5,36.7,29.55,NNE,22,2.7,-999.0,83,-99.99,,,0.00,Acu-Link.com,2013-02-28 17:25:00,
2013-02-28 12:40:00,44.8,39.6,29.54,NE,45,3.7,-999.0,82,-99.99,,,0.00,Acu-Link.com,2013-02-28 17:40:00,
2013-02-28 12:56:00,43.5,40.2,29.55,SSE,157,0.0,-999.0,88,-99.99,,,0.00,Acu-Link.com,2013-02-28 17:56:00,
2013-02-28 13:11:00,41.4,39.3,29.55,South,180,2.7,-999.0,92,-99.99,,,0.00,Acu-Link.com,2013-02-28 18:11:00,
2013-02-28 13:26:00,40.8,38.9,29.55,ENE,67,1.7,-999.0,93,-99.99,,,0.00,Acu-Link.com,2013-02-28 18:26:00,
2013-02-28 13:41:00,43.5,38.7,29.55,West,270,3.2,-999.0,83,-99.99,,,0.00,Acu-Link.com,2013-02-28 18:41:00,
2013-02-28 13:56:00,40.8,36.6,29.55,West,270,3.2,-999.0,85,-99.99,,,0.00,Acu-Link.com,2013-02-28 18:56:00,
2013-02-28 14:11:00,43.0,37.6,29.54,SSW,202,5.8,-999.0,81,-99.99,,,0.00,Acu-Link.com,2013-02-28 19:11:00,
2013-02-28 14:27:00,44.2,38.4,29.54,NW,315,3.7,-999.0,80,-99.99,,,0.00,Acu-Link.com,2013-02-28 19:27:00,
2013-02-28 14:42:00,43.7,37.6,29.54,SE,135,3.7,-999.0,79,-99.99,,,0.00,Acu-Link.com,2013-02-28 19:42:00,
2013-02-28 14:57:00,43.5,36.4,29.54,South,180,3.7,-999.0,76,-99.99,,,0.00,Acu-Link.com,2013-02-28 19:57:00,
2013-02-28 15:12:00,43.3,35.6,29.55,SSE,157,5.3,-999.0,74,-99.99,,,0.00,Acu-Link.com,2013-02-28 20:12:00,
2013-02-28 15:28:00,41.2,33.9,29.55,East,90,2.7,-999.0,75,-99.99,,,0.00,Acu-Link.com,2013-02-28 20:28:00,
2013-02-28 15:43:00,42.3,34.3,29.55,ESE,112,1.7,-999.0,73,-99.99,,,0.00,Acu-Link.com,2013-02-28 20:43:00,
2013-02-28 15:58:00,41.7,33.7,29.55,SE,135,2.2,-999.0,73,-99.99,,,0.00,Acu-Link.com,2013-02-28 20:58:00,
2013-02-28 16:13:00,41.7,33.7,29.56,SSE,157,5.3,-999.0,73,-99.99,,,0.00,Acu-Link.com,2013-02-28 21:13:00,
2013-02-28 16:28:00,40.8,33.8,29.56,SE,135,0.0,-999.0,76,-99.99,,,0.00,Acu-Link.com,2013-02-28 21:28:00,
2013-02-28 16:43:00,40.5,34.2,29.56,East,90,3.7,-999.0,78,-99.99,,,0.00,Acu-Link.com,2013-02-28 21:43:00,
2013-02-28 16:58:00,38.7,33.4,29.57,West,270,2.2,-999.0,81,-99.99,,,0.00,Acu-Link.com,2013-02-28 21:58:00,
2013-02-28 17:14:00,37.6,32.9,29.57,ENE,67,1.7,-999.0,83,-99.99,,,0.00,Acu-Link.com,2013-02-28 22:14:00,
2013-02-28 17:29:00,36.5,32.1,29.59,SE,135,2.7,-999.0,84,-99.99,,,0.00,Acu-Link.com,2013-02-28 22:29:00,
2013-02-28 17:44:00,35.2,31.4,29.59,East,90,1.1,-999.0,86,-99.99,,,0.00,Acu-Link.com,2013-02-28 22:44:00,
2013-02-28 17:59:00,34.3,32.0,29.60,NW,315,2.7,-999.0,91,-99.99,,,0.00,Acu-Link.com,2013-02-28 22:59:00,
2013-02-28 18:15:00,33.4,31.1,29.61,ENE,67,4.2,-999.0,91,-99.99,,,0.00,Acu-Link.com,2013-02-28 23:15:00,
2013-02-28 18:30:00,33.3,31.8,29.62,SE,135,2.7,-999.0,94,-99.99,,,0.00,Acu-Link.com,2013-02-28 23:30:00,
2013-02-28 18:45:00,33.3,31.8,29.63,SSE,157,2.2,-999.0,94,-99.99,,,0.00,Acu-Link.com,2013-02-28 23:45:00,
2013-02-28 19:00:00,33.3,31.8,29.64,West,270,1.7,-999.0,94,-99.99,,,0.00,Acu-Link.com,2013-03-01 00:00:00,
2013-02-28 19:16:00,33.1,31.3,29.64,ESE,112,1.7,-999.0,93,-99.99,,,0.00,Acu-Link.com,2013-03-01 00:16:00,
2013-02-28 19:31:00,33.1,31.0,29.63,SW,225,3.2,-999.0,92,-99.99,,,0.00,Acu-Link.com,2013-03-01 00:31:00,
2013-02-28 19:46:00,33.1,31.0,29.63,NE,45,2.7,-999.0,92,-99.99,,,0.00,Acu-Link.com,2013-03-01 00:46:00,
2013-02-28 20:01:00,32.9,30.6,29.63,SSE,157,3.2,-999.0,91,-99.99,,,0.00,Acu-Link.com,2013-03-01 01:01:00,
2013-02-28 20:16:00,32.9,30.3,29.63,WSW,247,1.7,-999.0,90,-99.99,,,0.00,Acu-Link.com,2013-03-01 01:16:00,
2013-02-28 20:31:00,32.7,30.6,29.62,SSE,157,3.7,-999.0,92,-99.99,,,0.00,Acu-Link.com,2013-03-01 01:31:00,
2013-02-28 20:47:00,32.7,30.4,29.62,East,90,1.7,-999.0,91,-99.99,,,0.00,Acu-Link.com,2013-03-01 01:47:00,
2013-02-28 21:02:00,32.7,30.6,29.63,NE,45,2.2,-999.0,92,-99.99,,,0.00,Acu-Link.com,2013-03-01 02:02:00,
2013-02-28 21:17:00,32.5,31.0,29.63,SSE,157,2.7,-999.0,94,-99.99,,,0.00,Acu-Link.com,2013-03-01 02:17:00,
2013-02-28 21:32:00,32.2,31.4,29.62,NE,45,2.7,-999.0,97,-99.99,,,0.00,Acu-Link.com,2013-03-01 02:32:00,
2013-02-28 21:47:00,32.0,31.5,29.63,South,180,2.7,-999.0,98,-99.99,,,0.00,Acu-Link.com,2013-03-01 02:47:00,
2013-02-28 22:03:00,32.0,31.5,29.63,SE,135,2.7,-999.0,98,-99.99,,,0.00,Acu-Link.com,2013-03-01 03:03:00,
2013-02-28 22:18:00,31.8,31.3,29.63,ESE,112,2.7,-999.0,98,-99.99,,,0.00,Acu-Link.com,2013-03-01 03:18:00,
2013-02-28 22:33:00,31.8,31.3,29.64,ESE,112,3.2,-999.0,98,-99.99,,,0.00,Acu-Link.com,2013-03-01 03:33:00,
2013-02-28 22:48:00,31.6,31.1,29.63,NNE,22,2.7,-999.0,98,-99.99,,,0.00,Acu-Link.com,2013-03-01 03:48:00,
2013-02-28 23:04:00,31.6,31.1,29.63,NNE,22,2.2,-999.0,98,-99.99,,,0.00,Acu-Link.com,2013-03-01 04:04:00,
2013-02-28 23:19:00,31.5,31.0,29.63,East,90,3.7,-999.0,98,-99.99,,,0.00,Acu-Link.com,2013-03-01 04:19:00,
2013-02-28 23:34:00,31.5,31.0,29.63,SW,225,2.7,-999.0,98,-99.99,,,0.00,Acu-Link.com,2013-03-01 04:34:00,
2013-02-28 23:49:00,31.3,30.8,29.64,ESE,112,2.7,-999.0,98,-99.99,,,0.00,Acu-Link.com,2013-03-01 04:49:00,